Retour au catalogue

TJS-27A

ActifLEO
NORAD 100174·PAYLOAD·🇨🇳 China

Lancé Jul 30, 2026 depuis Taiyuan Satellite Launch Center

Loading…

Prochains Passages (prochaines 24 heures)

TLE

FraisSource: Space-Track

Époque: Sep 14, 2026, 15:02 UTC

1 A0174U 26173A   26257.62679980 -.00000020  00000-0  12641-3 0  9990
2 A0174  64.7903 165.5564 0004873 248.2850 111.7661 13.28110797  6194

Suivez TJS-27A en temps réel avec AllMySat

Download on the App Store